Tracking 18823 objects as of 20-October-2017
HD Live streaming from Space Station
objects crossing your sky now

TITAN 3 R/B(2)

Track TITAN 3 R/B(2) now!


NORAD ID: 20669
Int'l Code: 1990-056C
Perigee: 310.6 km
Apogee: 32,993.6 km
Inclination: 24.5 °
Period: 579.4 minutes
Semi major axis: 23023 km
RCS: 6.947 m2 (large)
Launch date: June 23, 1990
Source: United States (US)
Launch site: AIR FORCE EASTERN TEST RANGE (AFETR)

Note: This is a ROCKET BODY
aabbcc
Your satellite tracking list
Your tracking list is empty





NASA's NSSDC Master Catalog

Two Line Element Set (TLE):
1 20669U 90056C   17292.44252102 +.00000457 +00000-0 +24138-3 0  9991
2 20669 024.4666 035.0709 7097880 113.2635 332.5723 02.48517832230513
Source of the keplerian elements: AFSPC